Location: Br�ttisellen
(47.4227°N, 8.6287°E)
Time: 10:08:48
(UTC+00:00)

SL-4 R/B - Pass Details

Date: 09 April 2020
Orbit: 428 x 666 km, 51.6° (Epoch: 25 May)

Event Time Altitude Azimuth Distance (km) Brightness Sun altitude
Rises 19:01:49 0° 257° (WSW) 2,397 6.2 -9.6°
Reaches altitude 10° 19:03:56 10° 261° (W) 1,524 5.2 -10.0°
Maximum altitude 19:07:18 60° 342° (NNW) 497 2.0 -10.5°
Drops below altitude 10° 19:10:43 10° 63° (ENE) 1,546 4.0 -11.0°
Enters shadow 19:11:15 - 65° (ENE) 1,768 4.2 -11.1°
